#datetime,building,power
2023-07-15T00:00:00,axn,28.35
2023-07-15T00:01:00,axn,28.93
2023-07-15T00:02:00,axn,28.19
2023-07-15T00:03:00,axn,28.05
2023-07-15T00:04:00,axn,28.16
2023-07-15T00:05:00,axn,28.29
2023-07-15T00:06:00,axn,28.24
2023-07-15T00:07:00,axn,28.67
2023-07-15T00:08:00,axn,28.79
2023-07-15T00:09:00,axn,28.80
2023-07-15T00:10:00,axn,28.85
2023-07-15T00:11:00,axn,28.70
2023-07-15T00:12:00,axn,28.60
2023-07-15T00:13:00,axn,28.63
2023-07-15T00:14:00,axn,28.79
2023-07-15T00:15:00,axn,28.72
2023-07-15T00:16:00,axn,28.71
2023-07-15T00:17:00,axn,28.97
2023-07-15T00:18:00,axn,28.82
2023-07-15T00:19:00,axn,28.45
2023-07-15T00:20:00,axn,28.78
2023-07-15T00:21:00,axn,28.45
2023-07-15T00:22:00,axn,28.66
2023-07-15T00:23:00,axn,28.20
2023-07-15T00:24:00,axn,28.26
2023-07-15T00:25:00,axn,28.50
2023-07-15T00:26:00,axn,27.90
2023-07-15T00:27:00,axn,27.93
2023-07-15T00:28:00,axn,27.87
2023-07-15T00:29:00,axn,27.63
2023-07-15T00:30:00,axn,27.79
2023-07-15T00:31:00,axn,27.81
2023-07-15T00:32:00,axn,27.78
2023-07-15T00:33:00,axn,27.57
2023-07-15T00:34:00,axn,27.61
2023-07-15T00:35:00,axn,27.75
2023-07-15T00:36:00,axn,27.82
2023-07-15T00:37:00,axn,27.93
2023-07-15T00:38:00,axn,27.95
2023-07-15T00:39:00,axn,27.82
2023-07-15T00:40:00,axn,27.84
2023-07-15T00:41:00,axn,27.52
2023-07-15T00:42:00,axn,27.72
2023-07-15T00:43:00,axn,27.77
2023-07-15T00:44:00,axn,27.67
2023-07-15T00:45:00,axn,27.65
2023-07-15T00:46:00,axn,27.57
2023-07-15T00:47:00,axn,27.60
2023-07-15T00:48:00,axn,30.66
2023-07-15T00:49:00,axn,30.36
2023-07-15T00:50:00,axn,30.50
2023-07-15T00:51:00,axn,27.95
2023-07-15T00:52:00,axn,27.74
2023-07-15T00:53:00,axn,27.69
2023-07-15T00:54:00,axn,28.08
2023-07-15T00:55:00,axn,27.69
2023-07-15T00:56:00,axn,27.73
2023-07-15T00:57:00,axn,27.64
2023-07-15T00:58:00,axn,28.00
2023-07-15T00:59:00,axn,27.91
2023-07-15T01:00:00,axn,27.58
2023-07-15T01:01:00,axn,27.65
2023-07-15T01:02:00,axn,27.68
2023-07-15T01:03:00,axn,27.82
2023-07-15T01:04:00,axn,28.19
2023-07-15T01:05:00,axn,28.07
2023-07-15T01:06:00,axn,28.21
2023-07-15T01:07:00,axn,28.41
2023-07-15T01:08:00,axn,27.96
2023-07-15T01:09:00,axn,28.04
2023-07-15T01:10:00,axn,27.95
2023-07-15T01:11:00,axn,28.02
2023-07-15T01:12:00,axn,27.89
2023-07-15T01:13:00,axn,27.69
2023-07-15T01:14:00,axn,27.81
2023-07-15T01:15:00,axn,28.10
2023-07-15T01:16:00,axn,30.50
2023-07-15T01:17:00,axn,30.34
2023-07-15T01:18:00,axn,32.83
2023-07-15T01:19:00,axn,30.94
2023-07-15T01:20:00,axn,33.49
2023-07-15T01:21:00,axn,33.37
2023-07-15T01:22:00,axn,33.27
2023-07-15T01:23:00,axn,48.17
2023-07-15T01:24:00,axn,48.21
2023-07-15T01:25:00,axn,47.92
2023-07-15T01:26:00,axn,47.62
2023-07-15T01:27:00,axn,47.39
2023-07-15T01:28:00,axn,33.14
2023-07-15T01:29:00,axn,33.05
2023-07-15T01:30:00,axn,33.14
2023-07-15T01:31:00,axn,33.45
2023-07-15T01:32:00,axn,34.15
2023-07-15T01:33:00,axn,33.70
2023-07-15T01:34:00,axn,33.70
2023-07-15T01:35:00,axn,33.68
2023-07-15T01:36:00,axn,33.65
2023-07-15T01:37:00,axn,33.89
2023-07-15T01:38:00,axn,33.78
2023-07-15T01:39:00,axn,33.79
2023-07-15T01:40:00,axn,33.71
2023-07-15T01:41:00,axn,33.95
2023-07-15T01:42:00,axn,34.30
2023-07-15T01:43:00,axn,33.56
2023-07-15T01:44:00,axn,33.55
2023-07-15T01:45:00,axn,33.58
2023-07-15T01:46:00,axn,33.56
2023-07-15T01:47:00,axn,33.40
2023-07-15T01:48:00,axn,33.78
2023-07-15T01:49:00,axn,33.48
2023-07-15T01:50:00,axn,33.52
2023-07-15T01:51:00,axn,33.64
2023-07-15T01:52:00,axn,34.42
2023-07-15T01:53:00,axn,33.71
2023-07-15T01:54:00,axn,33.64
2023-07-15T01:55:00,axn,33.40
2023-07-15T01:56:00,axn,33.43
2023-07-15T01:57:00,axn,33.50
2023-07-15T01:58:00,axn,33.41
2023-07-15T01:59:00,axn,33.30
2023-07-15T02:00:00,axn,33.48
2023-07-15T02:01:00,axn,33.94
2023-07-15T02:02:00,axn,33.54
2023-07-15T02:03:00,axn,33.80
2023-07-15T02:04:00,axn,33.15
2023-07-15T02:05:00,axn,33.33
2023-07-15T02:06:00,axn,33.59
2023-07-15T02:07:00,axn,33.57
2023-07-15T02:08:00,axn,32.84
2023-07-15T02:09:00,axn,32.86
2023-07-15T02:10:00,axn,33.18
2023-07-15T02:11:00,axn,32.78
2023-07-15T02:12:00,axn,33.08
2023-07-15T02:13:00,axn,32.81
2023-07-15T02:14:00,axn,32.77
2023-07-15T02:15:00,axn,32.87
2023-07-15T02:16:00,axn,35.99
2023-07-15T02:17:00,axn,35.83
2023-07-15T02:18:00,axn,32.78
2023-07-15T02:19:00,axn,32.45
2023-07-15T02:20:00,axn,32.63
2023-07-15T02:21:00,axn,32.95
2023-07-15T02:22:00,axn,32.93
2023-07-15T02:23:00,axn,32.75
2023-07-15T02:24:00,axn,32.89
2023-07-15T02:25:00,axn,32.85
2023-07-15T02:26:00,axn,31.25
2023-07-15T02:27:00,axn,29.51
2023-07-15T02:28:00,axn,28.14
2023-07-15T02:29:00,axn,28.17
2023-07-15T02:30:00,axn,28.07
2023-07-15T02:31:00,axn,27.92
2023-07-15T02:32:00,axn,27.99
2023-07-15T02:33:00,axn,28.06
2023-07-15T02:34:00,axn,28.06
2023-07-15T02:35:00,axn,27.90
2023-07-15T02:36:00,axn,27.95
2023-07-15T02:37:00,axn,27.86
2023-07-15T02:38:00,axn,27.93
2023-07-15T02:39:00,axn,27.97
2023-07-15T02:40:00,axn,28.29
2023-07-15T02:41:00,axn,27.91
2023-07-15T02:42:00,axn,27.93
2023-07-15T02:43:00,axn,28.26
2023-07-15T02:44:00,axn,27.86
2023-07-15T02:45:00,axn,27.84
2023-07-15T02:46:00,axn,28.05
2023-07-15T02:47:00,axn,27.92
2023-07-15T02:48:00,axn,27.88
2023-07-15T02:49:00,axn,28.19
2023-07-15T02:50:00,axn,28.02
2023-07-15T02:51:00,axn,28.07
2023-07-15T02:52:00,axn,28.20
2023-07-15T02:53:00,axn,27.75
2023-07-15T02:54:00,axn,27.53
2023-07-15T02:55:00,axn,27.40
2023-07-15T02:56:00,axn,27.77
2023-07-15T02:57:00,axn,27.49
2023-07-15T02:58:00,axn,27.53
2023-07-15T02:59:00,axn,27.60
2023-07-15T03:00:00,axn,28.23
2023-07-15T03:01:00,axn,27.98
2023-07-15T03:02:00,axn,27.96
2023-07-15T03:03:00,axn,28.20
2023-07-15T03:04:00,axn,28.04
2023-07-15T03:05:00,axn,32.54
2023-07-15T03:06:00,axn,33.09
2023-07-15T03:07:00,axn,28.05
2023-07-15T03:08:00,axn,28.13
2023-07-15T03:09:00,axn,28.06
2023-07-15T03:10:00,axn,28.18
2023-07-15T03:11:00,axn,28.00
2023-07-15T03:12:00,axn,27.84
2023-07-15T03:13:00,axn,27.83
2023-07-15T03:14:00,axn,27.62
2023-07-15T03:15:00,axn,27.68
2023-07-15T03:16:00,axn,27.96
2023-07-15T03:17:00,axn,27.77
2023-07-15T03:18:00,axn,27.74
2023-07-15T03:19:00,axn,27.61
2023-07-15T03:20:00,axn,27.81
2023-07-15T03:21:00,axn,27.87
2023-07-15T03:22:00,axn,27.79
2023-07-15T03:23:00,axn,28.24
2023-07-15T03:24:00,axn,27.89
2023-07-15T03:25:00,axn,27.73
2023-07-15T03:26:00,axn,27.68
2023-07-15T03:27:00,axn,27.93
2023-07-15T03:28:00,axn,27.57
2023-07-15T03:29:00,axn,27.66
2023-07-15T03:30:00,axn,27.64
2023-07-15T03:31:00,axn,27.64
2023-07-15T03:32:00,axn,27.87
2023-07-15T03:33:00,axn,27.69
2023-07-15T03:34:00,axn,27.77
2023-07-15T03:35:00,axn,27.90
2023-07-15T03:36:00,axn,27.77
2023-07-15T03:37:00,axn,27.73
2023-07-15T03:38:00,axn,28.33
2023-07-15T03:39:00,axn,27.78
2023-07-15T03:40:00,axn,27.84
2023-07-15T03:41:00,axn,27.94
2023-07-15T03:42:00,axn,28.07
2023-07-15T03:43:00,axn,28.01
2023-07-15T03:44:00,axn,27.86
2023-07-15T03:45:00,axn,28.01
2023-07-15T03:46:00,axn,27.90
2023-07-15T03:47:00,axn,28.11
2023-07-15T03:48:00,axn,28.07
2023-07-15T03:49:00,axn,27.89
2023-07-15T03:50:00,axn,27.82
2023-07-15T03:51:00,axn,27.98
2023-07-15T03:52:00,axn,27.60
2023-07-15T03:53:00,axn,27.64
2023-07-15T03:54:00,axn,27.60
2023-07-15T03:55:00,axn,28.02
2023-07-15T03:56:00,axn,27.52
2023-07-15T03:57:00,axn,27.61
2023-07-15T03:58:00,axn,27.81
2023-07-15T03:59:00,axn,38.30
2023-07-15T04:00:00,axn,38.20
2023-07-15T04:01:00,axn,38.17
2023-07-15T04:02:00,axn,38.10
2023-07-15T04:03:00,axn,28.26
2023-07-15T04:04:00,axn,27.96
2023-07-15T04:05:00,axn,28.27
2023-07-15T04:06:00,axn,28.55
2023-07-15T04:07:00,axn,28.27
2023-07-15T04:08:00,axn,28.16
2023-07-15T04:09:00,axn,28.23
2023-07-15T04:10:00,axn,28.30
2023-07-15T04:11:00,axn,28.01
2023-07-15T04:12:00,axn,28.15
2023-07-15T04:13:00,axn,28.15
2023-07-15T04:14:00,axn,28.62
2023-07-15T04:15:00,axn,28.66
2023-07-15T04:16:00,axn,28.16
2023-07-15T04:17:00,axn,28.06
2023-07-15T04:18:00,axn,27.97
2023-07-15T04:19:00,axn,27.91
2023-07-15T04:20:00,axn,27.78
2023-07-15T04:21:00,axn,28.25
2023-07-15T04:22:00,axn,27.79
2023-07-15T04:23:00,axn,28.38
2023-07-15T04:24:00,axn,28.20
2023-07-15T04:25:00,axn,28.14
2023-07-15T04:26:00,axn,28.26
2023-07-15T04:27:00,axn,28.23
2023-07-15T04:28:00,axn,27.88
2023-07-15T04:29:00,axn,30.71
2023-07-15T04:30:00,axn,30.71
2023-07-15T04:31:00,axn,30.79
2023-07-15T04:32:00,axn,28.26
2023-07-15T04:33:00,axn,28.28
2023-07-15T04:34:00,axn,28.17
2023-07-15T04:35:00,axn,28.25
2023-07-15T04:36:00,axn,28.21
2023-07-15T04:37:00,axn,28.22
2023-07-15T04:38:00,axn,28.19
2023-07-15T04:39:00,axn,28.17
2023-07-15T04:40:00,axn,28.10
2023-07-15T04:41:00,axn,28.09
2023-07-15T04:42:00,axn,28.08
2023-07-15T04:43:00,axn,28.78
2023-07-15T04:44:00,axn,28.13
2023-07-15T04:45:00,axn,28.14
2023-07-15T04:46:00,axn,28.34
2023-07-15T04:47:00,axn,27.86
2023-07-15T04:48:00,axn,28.08
2023-07-15T04:49:00,axn,28.09
2023-07-15T04:50:00,axn,28.23
2023-07-15T04:51:00,axn,28.17
2023-07-15T04:52:00,axn,28.54
2023-07-15T04:53:00,axn,28.35
2023-07-15T04:54:00,axn,34.16
2023-07-15T04:55:00,axn,34.09
2023-07-15T04:56:00,axn,34.04
2023-07-15T04:57:00,axn,34.46
2023-07-15T04:58:00,axn,27.95
2023-07-15T04:59:00,axn,27.74
2023-07-15T05:00:00,axn,27.82
2023-07-15T05:01:00,axn,27.99
2023-07-15T05:02:00,axn,27.99
2023-07-15T05:03:00,axn,27.96
2023-07-15T05:04:00,axn,27.88
2023-07-15T05:05:00,axn,27.60
2023-07-15T05:06:00,axn,27.60
2023-07-15T05:07:00,axn,30.30
2023-07-15T05:08:00,axn,27.42
2023-07-15T05:09:00,axn,27.39
2023-07-15T05:10:00,axn,28.08
2023-07-15T05:11:00,axn,27.59
2023-07-15T05:12:00,axn,27.68
2023-07-15T05:13:00,axn,27.59
2023-07-15T05:14:00,axn,27.39
2023-07-15T05:15:00,axn,27.79
2023-07-15T05:16:00,axn,27.07
2023-07-15T05:17:00,axn,27.12
2023-07-15T05:18:00,axn,26.91
2023-07-15T05:19:00,axn,26.90
2023-07-15T05:20:00,axn,26.82
2023-07-15T05:21:00,axn,26.84
2023-07-15T05:22:00,axn,30.29
2023-07-15T05:23:00,axn,30.62
2023-07-15T05:24:00,axn,30.63
2023-07-15T05:25:00,axn,28.85
2023-07-15T05:26:00,axn,27.78
2023-07-15T05:27:00,axn,28.06
2023-07-15T05:28:00,axn,27.55
2023-07-15T05:29:00,axn,27.61
2023-07-15T05:30:00,axn,27.73
2023-07-15T05:31:00,axn,29.93
2023-07-15T05:32:00,axn,29.80
2023-07-15T05:33:00,axn,29.61
2023-07-15T05:34:00,axn,29.52
2023-07-15T05:35:00,axn,29.50
2023-07-15T05:36:00,axn,29.58
2023-07-15T05:37:00,axn,29.64
2023-07-15T05:38:00,axn,29.53
2023-07-15T05:39:00,axn,29.41
2023-07-15T05:40:00,axn,29.43
2023-07-15T05:41:00,axn,29.49
2023-07-15T05:42:00,axn,29.45
2023-07-15T05:43:00,axn,29.24
2023-07-15T05:44:00,axn,29.19
2023-07-15T05:45:00,axn,29.29
2023-07-15T05:46:00,axn,28.89
2023-07-15T05:47:00,axn,28.92
2023-07-15T05:48:00,axn,28.81
2023-07-15T05:49:00,axn,28.79
2023-07-15T05:50:00,axn,28.97
2023-07-15T05:51:00,axn,28.97
2023-07-15T05:52:00,axn,29.16
2023-07-15T05:53:00,axn,29.28
2023-07-15T05:54:00,axn,29.06
2023-07-15T05:55:00,axn,28.97
2023-07-15T05:56:00,axn,29.07
2023-07-15T05:57:00,axn,29.14
2023-07-15T05:58:00,axn,29.10
2023-07-15T05:59:00,axn,29.05
2023-07-15T06:00:00,axn,29.30
2023-07-15T06:01:00,axn,29.16
2023-07-15T06:02:00,axn,28.97
2023-07-15T06:03:00,axn,28.92
2023-07-15T06:04:00,axn,29.60
2023-07-15T06:05:00,axn,28.92
2023-07-15T06:06:00,axn,28.90
2023-07-15T06:07:00,axn,29.06
2023-07-15T06:08:00,axn,28.97
2023-07-15T06:09:00,axn,28.84
2023-07-15T06:10:00,axn,28.78
2023-07-15T06:11:00,axn,28.74
2023-07-15T06:12:00,axn,28.64
2023-07-15T06:13:00,axn,28.72
2023-07-15T06:14:00,axn,28.69
2023-07-15T06:15:00,axn,28.68
2023-07-15T06:16:00,axn,28.59
2023-07-15T06:17:00,axn,28.57
2023-07-15T06:18:00,axn,28.59
2023-07-15T06:19:00,axn,28.61
2023-07-15T06:20:00,axn,28.72
2023-07-15T06:21:00,axn,28.63
2023-07-15T06:22:00,axn,28.71
2023-07-15T06:23:00,axn,28.64
2023-07-15T06:24:00,axn,28.61
2023-07-15T06:25:00,axn,28.63
2023-07-15T06:26:00,axn,28.55
2023-07-15T06:27:00,axn,28.83
2023-07-15T06:28:00,axn,28.63
2023-07-15T06:29:00,axn,28.60
2023-07-15T06:30:00,axn,28.60
2023-07-15T06:31:00,axn,28.48
2023-07-15T06:32:00,axn,28.57
2023-07-15T06:33:00,axn,44.10
2023-07-15T06:34:00,axn,28.79
2023-07-15T06:35:00,axn,28.37
2023-07-15T06:36:00,axn,28.31
2023-07-15T06:37:00,axn,28.23
2023-07-15T06:38:00,axn,28.34
2023-07-15T06:39:00,axn,28.46
2023-07-15T06:40:00,axn,28.67
2023-07-15T06:41:00,axn,28.75
2023-07-15T06:42:00,axn,28.64
2023-07-15T06:43:00,axn,28.72
2023-07-15T06:44:00,axn,28.78
2023-07-15T06:45:00,axn,28.74
2023-07-15T06:46:00,axn,28.71
2023-07-15T06:47:00,axn,28.65
2023-07-15T06:48:00,axn,28.40
2023-07-15T06:49:00,axn,28.29
2023-07-15T06:50:00,axn,28.54
2023-07-15T06:51:00,axn,28.67
2023-07-15T06:52:00,axn,28.79
2023-07-15T06:53:00,axn,29.22
2023-07-15T06:54:00,axn,29.00
2023-07-15T06:55:00,axn,28.97
2023-07-15T06:56:00,axn,29.10
2023-07-15T06:57:00,axn,29.30
2023-07-15T06:58:00,axn,29.38
2023-07-15T06:59:00,axn,29.09
2023-07-15T07:00:00,axn,29.02
2023-07-15T07:01:00,axn,32.17
2023-07-15T07:02:00,axn,35.27
2023-07-15T07:03:00,axn,34.99
2023-07-15T07:04:00,axn,34.58
2023-07-15T07:05:00,axn,35.05
2023-07-15T07:06:00,axn,35.37
2023-07-15T07:07:00,axn,35.54
2023-07-15T07:08:00,axn,35.44
2023-07-15T07:09:00,axn,35.46
2023-07-15T07:10:00,axn,35.35
2023-07-15T07:11:00,axn,36.16
2023-07-15T07:12:00,axn,36.10
2023-07-15T07:13:00,axn,35.58
2023-07-15T07:14:00,axn,35.60
2023-07-15T07:15:00,axn,35.70
2023-07-15T07:16:00,axn,35.56
2023-07-15T07:17:00,axn,35.74
2023-07-15T07:18:00,axn,36.16
2023-07-15T07:19:00,axn,35.86
2023-07-15T07:20:00,axn,35.57
2023-07-15T07:21:00,axn,35.70
2023-07-15T07:22:00,axn,35.73
2023-07-15T07:23:00,axn,36.03
2023-07-15T07:24:00,axn,35.82
2023-07-15T07:25:00,axn,35.93
2023-07-15T07:26:00,axn,36.32
2023-07-15T07:27:00,axn,36.08
2023-07-15T07:28:00,axn,36.06
2023-07-15T07:29:00,axn,35.91
2023-07-15T07:30:00,axn,35.86
2023-07-15T07:31:00,axn,35.73
2023-07-15T07:32:00,axn,36.02
2023-07-15T07:33:00,axn,35.64
2023-07-15T07:34:00,axn,35.44
2023-07-15T07:35:00,axn,35.53
2023-07-15T07:36:00,axn,35.85
2023-07-15T07:37:00,axn,35.70
2023-07-15T07:38:00,axn,35.55
2023-07-15T07:39:00,axn,35.46
2023-07-15T07:40:00,axn,35.39
2023-07-15T07:41:00,axn,35.49
2023-07-15T07:42:00,axn,34.89
2023-07-15T07:43:00,axn,35.39
2023-07-15T07:44:00,axn,34.97
2023-07-15T07:45:00,axn,35.01
2023-07-15T07:46:00,axn,35.03
2023-07-15T07:47:00,axn,34.96
2023-07-15T07:48:00,axn,35.73
2023-07-15T07:49:00,axn,35.60
2023-07-15T07:50:00,axn,35.75
2023-07-15T07:51:00,axn,35.74
2023-07-15T07:52:00,axn,35.73
2023-07-15T07:53:00,axn,35.89
2023-07-15T07:54:00,axn,35.61
2023-07-15T07:55:00,axn,35.87
2023-07-15T07:56:00,axn,35.67
2023-07-15T07:57:00,axn,35.39
2023-07-15T07:58:00,axn,35.60
2023-07-15T07:59:00,axn,35.78
2023-07-15T08:00:00,axn,40.29
2023-07-15T08:01:00,axn,40.28
2023-07-15T08:02:00,axn,40.22
2023-07-15T08:03:00,axn,35.68
2023-07-15T08:04:00,axn,35.52
2023-07-15T08:05:00,axn,35.68
2023-07-15T08:06:00,axn,35.63
2023-07-15T08:07:00,axn,51.54
2023-07-15T08:08:00,axn,35.51
2023-07-15T08:09:00,axn,49.80
2023-07-15T08:10:00,axn,49.60
2023-07-15T08:11:00,axn,52.42
2023-07-15T08:12:00,axn,53.23
2023-07-15T08:13:00,axn,51.88
2023-07-15T08:14:00,axn,48.94
2023-07-15T08:15:00,axn,35.07
2023-07-15T08:16:00,axn,34.60
2023-07-15T08:17:00,axn,34.42
2023-07-15T08:18:00,axn,34.91
2023-07-15T08:19:00,axn,35.05
2023-07-15T08:20:00,axn,34.72
2023-07-15T08:21:00,axn,34.50
2023-07-15T08:22:00,axn,34.56
2023-07-15T08:23:00,axn,34.51
2023-07-15T08:24:00,axn,34.58
2023-07-15T08:25:00,axn,34.61
2023-07-15T08:26:00,axn,34.56
2023-07-15T08:27:00,axn,34.45
2023-07-15T08:28:00,axn,34.82
2023-07-15T08:29:00,axn,39.98
2023-07-15T08:30:00,axn,40.12
2023-07-15T08:31:00,axn,34.29
2023-07-15T08:32:00,axn,34.80
2023-07-15T08:33:00,axn,34.56
2023-07-15T08:34:00,axn,37.34
2023-07-15T08:35:00,axn,34.42
2023-07-15T08:36:00,axn,34.37
2023-07-15T08:37:00,axn,34.02
2023-07-15T08:38:00,axn,34.21
2023-07-15T08:39:00,axn,34.00
2023-07-15T08:40:00,axn,33.75
2023-07-15T08:41:00,axn,34.45
2023-07-15T08:42:00,axn,34.39
2023-07-15T08:43:00,axn,34.35
2023-07-15T08:44:00,axn,34.50
2023-07-15T08:45:00,axn,34.52
2023-07-15T08:46:00,axn,33.97
2023-07-15T08:47:00,axn,33.85
2023-07-15T08:48:00,axn,33.81
2023-07-15T08:49:00,axn,33.79
2023-07-15T08:50:00,axn,33.83
2023-07-15T08:51:00,axn,33.52
2023-07-15T08:52:00,axn,33.84
2023-07-15T08:53:00,axn,50.50
2023-07-15T08:54:00,axn,34.43
2023-07-15T08:55:00,axn,34.49
2023-07-15T08:56:00,axn,33.80
2023-07-15T08:57:00,axn,33.72
2023-07-15T08:58:00,axn,33.74
2023-07-15T08:59:00,axn,33.98
2023-07-15T09:00:00,axn,34.12
2023-07-15T09:01:00,axn,33.77
2023-07-15T09:02:00,axn,33.95
2023-07-15T09:03:00,axn,34.02
2023-07-15T09:04:00,axn,34.11
2023-07-15T09:05:00,axn,34.08
2023-07-15T09:06:00,axn,34.32
2023-07-15T09:07:00,axn,34.62
2023-07-15T09:08:00,axn,34.15
2023-07-15T09:09:00,axn,34.40
2023-07-15T09:10:00,axn,34.63
2023-07-15T09:11:00,axn,34.73
2023-07-15T09:12:00,axn,34.61
2023-07-15T09:13:00,axn,34.43
2023-07-15T09:14:00,axn,34.61
2023-07-15T09:15:00,axn,34.81
2023-07-15T09:16:00,axn,35.08
2023-07-15T09:17:00,axn,35.03
2023-07-15T09:18:00,axn,34.89
2023-07-15T09:19:00,axn,34.78
2023-07-15T09:20:00,axn,34.98
2023-07-15T09:21:00,axn,34.66
2023-07-15T09:22:00,axn,34.74
2023-07-15T09:23:00,axn,35.19
2023-07-15T09:24:00,axn,35.39
2023-07-15T09:25:00,axn,35.90
2023-07-15T09:26:00,axn,35.47
2023-07-15T09:27:00,axn,35.69
2023-07-15T09:28:00,axn,35.32
2023-07-15T09:29:00,axn,35.14
2023-07-15T09:30:00,axn,34.95
2023-07-15T09:31:00,axn,35.84
2023-07-15T09:32:00,axn,36.16
2023-07-15T09:33:00,axn,35.36
2023-07-15T09:34:00,axn,35.17
2023-07-15T09:35:00,axn,35.29
2023-07-15T09:36:00,axn,34.95
2023-07-15T09:37:00,axn,34.73
2023-07-15T09:38:00,axn,34.85
2023-07-15T09:39:00,axn,34.70
2023-07-15T09:40:00,axn,34.48
2023-07-15T09:41:00,axn,34.20
2023-07-15T09:42:00,axn,34.19
2023-07-15T09:43:00,axn,33.50
2023-07-15T09:44:00,axn,33.83
2023-07-15T09:45:00,axn,33.83
2023-07-15T09:46:00,axn,33.95
2023-07-15T09:47:00,axn,33.69
2023-07-15T09:48:00,axn,33.60
2023-07-15T09:49:00,axn,33.30
2023-07-15T09:50:00,axn,33.28
2023-07-15T09:51:00,axn,34.06
2023-07-15T09:52:00,axn,33.85
2023-07-15T09:53:00,axn,33.73
2023-07-15T09:54:00,axn,34.02
2023-07-15T09:55:00,axn,33.48
2023-07-15T09:56:00,axn,33.37
2023-07-15T09:57:00,axn,33.58
2023-07-15T09:58:00,axn,33.58
2023-07-15T09:59:00,axn,34.13
2023-07-15T10:00:00,axn,33.62
2023-07-15T10:01:00,axn,33.83
2023-07-15T10:02:00,axn,33.56
2023-07-15T10:03:00,axn,33.66
2023-07-15T10:04:00,axn,33.53
2023-07-15T10:05:00,axn,33.33
2023-07-15T10:06:00,axn,33.47
2023-07-15T10:07:00,axn,33.43
2023-07-15T10:08:00,axn,33.23
2023-07-15T10:09:00,axn,33.16
2023-07-15T10:10:00,axn,33.10
2023-07-15T10:11:00,axn,33.27
2023-07-15T10:12:00,axn,33.03
2023-07-15T10:13:00,axn,33.39
2023-07-15T10:14:00,axn,33.63
2023-07-15T10:15:00,axn,33.23
2023-07-15T10:16:00,axn,33.67
2023-07-15T10:17:00,axn,33.44
2023-07-15T10:18:00,axn,33.01
2023-07-15T10:19:00,axn,34.52
2023-07-15T10:20:00,axn,33.74
2023-07-15T10:21:00,axn,33.30
2023-07-15T10:22:00,axn,33.49
2023-07-15T10:23:00,axn,33.66
2023-07-15T10:24:00,axn,33.38
2023-07-15T10:25:00,axn,33.11
2023-07-15T10:26:00,axn,33.36
2023-07-15T10:27:00,axn,33.40
2023-07-15T10:28:00,axn,32.86
2023-07-15T10:29:00,axn,32.88
2023-07-15T10:30:00,axn,32.80
2023-07-15T10:31:00,axn,32.79
2023-07-15T10:32:00,axn,32.78
2023-07-15T10:33:00,axn,32.91
2023-07-15T10:34:00,axn,32.73
2023-07-15T10:35:00,axn,32.81
2023-07-15T10:36:00,axn,32.66
2023-07-15T10:37:00,axn,32.75
2023-07-15T10:38:00,axn,32.80
2023-07-15T10:39:00,axn,32.66
2023-07-15T10:40:00,axn,32.55
2023-07-15T10:41:00,axn,32.48
2023-07-15T10:42:00,axn,32.35
2023-07-15T10:43:00,axn,32.91
2023-07-15T10:44:00,axn,32.95
2023-07-15T10:45:00,axn,33.04
2023-07-15T10:46:00,axn,33.74
2023-07-15T10:47:00,axn,32.77
2023-07-15T10:48:00,axn,32.79
2023-07-15T10:49:00,axn,33.02
2023-07-15T10:50:00,axn,33.03
2023-07-15T10:51:00,axn,33.36
2023-07-15T10:52:00,axn,33.65
2023-07-15T10:53:00,axn,33.40
2023-07-15T10:54:00,axn,33.43
2023-07-15T10:55:00,axn,33.72
2023-07-15T10:56:00,axn,34.18
2023-07-15T10:57:00,axn,34.21
2023-07-15T10:58:00,axn,34.41
2023-07-15T10:59:00,axn,34.34
2023-07-15T11:00:00,axn,34.39
2023-07-15T11:01:00,axn,34.51
2023-07-15T11:02:00,axn,34.44
2023-07-15T11:03:00,axn,34.34
2023-07-15T11:04:00,axn,34.14
2023-07-15T11:05:00,axn,33.74
2023-07-15T11:06:00,axn,33.99
2023-07-15T11:07:00,axn,34.57
2023-07-15T11:08:00,axn,34.34
2023-07-15T11:09:00,axn,34.36
2023-07-15T11:10:00,axn,34.70
2023-07-15T11:11:00,axn,34.25
2023-07-15T11:12:00,axn,34.35
2023-07-15T11:13:00,axn,34.81
2023-07-15T11:14:00,axn,34.79
2023-07-15T11:15:00,axn,34.26
2023-07-15T11:16:00,axn,34.14
2023-07-15T11:17:00,axn,34.01
2023-07-15T11:18:00,axn,34.20
2023-07-15T11:19:00,axn,34.59
2023-07-15T11:20:00,axn,34.56
2023-07-15T11:21:00,axn,34.51
2023-07-15T11:22:00,axn,34.93
2023-07-15T11:23:00,axn,34.36
2023-07-15T11:24:00,axn,34.32
2023-07-15T11:25:00,axn,34.51
2023-07-15T11:26:00,axn,34.52
2023-07-15T11:27:00,axn,34.43
2023-07-15T11:28:00,axn,34.55
2023-07-15T11:29:00,axn,34.24
2023-07-15T11:30:00,axn,34.55
2023-07-15T11:31:00,axn,34.47
2023-07-15T11:32:00,axn,34.34
2023-07-15T11:33:00,axn,34.24
2023-07-15T11:34:00,axn,34.33
2023-07-15T11:35:00,axn,34.20
2023-07-15T11:36:00,axn,34.23
2023-07-15T11:37:00,axn,34.45
2023-07-15T11:38:00,axn,34.82
2023-07-15T11:39:00,axn,34.21
2023-07-15T11:40:00,axn,34.24
2023-07-15T11:41:00,axn,34.10
2023-07-15T11:42:00,axn,34.14
2023-07-15T11:43:00,axn,35.66
2023-07-15T11:44:00,axn,36.40
2023-07-15T11:45:00,axn,36.74
2023-07-15T11:46:00,axn,36.73
2023-07-15T11:47:00,axn,37.01
2023-07-15T11:48:00,axn,39.97
2023-07-15T11:49:00,axn,39.57
2023-07-15T11:50:00,axn,39.51
2023-07-15T11:51:00,axn,36.84
2023-07-15T11:52:00,axn,36.68
2023-07-15T11:53:00,axn,36.69
2023-07-15T11:54:00,axn,36.91
2023-07-15T11:55:00,axn,37.43
2023-07-15T11:56:00,axn,37.23
2023-07-15T11:57:00,axn,37.05
2023-07-15T11:58:00,axn,36.76
2023-07-15T11:59:00,axn,36.46
2023-07-15T12:00:00,axn,36.64
2023-07-15T12:01:00,axn,36.83
2023-07-15T12:02:00,axn,36.80
2023-07-15T12:03:00,axn,36.97
2023-07-15T12:04:00,axn,36.72
2023-07-15T12:05:00,axn,36.61
2023-07-15T12:06:00,axn,37.62
2023-07-15T12:07:00,axn,37.41
2023-07-15T12:08:00,axn,37.84
2023-07-15T12:09:00,axn,40.06
2023-07-15T12:10:00,axn,37.23
2023-07-15T12:11:00,axn,37.05
2023-07-15T12:12:00,axn,37.20
2023-07-15T12:13:00,axn,37.48
2023-07-15T12:14:00,axn,37.30
2023-07-15T12:15:00,axn,37.02
2023-07-15T12:16:00,axn,37.26
2023-07-15T12:17:00,axn,37.07
2023-07-15T12:18:00,axn,36.75
2023-07-15T12:19:00,axn,36.67
2023-07-15T12:20:00,axn,37.27
2023-07-15T12:21:00,axn,36.75
2023-07-15T12:22:00,axn,36.88
2023-07-15T12:23:00,axn,36.83
2023-07-15T12:24:00,axn,37.04
2023-07-15T12:25:00,axn,37.16
2023-07-15T12:26:00,axn,36.99
2023-07-15T12:27:00,axn,36.68
2023-07-15T12:28:00,axn,36.77
2023-07-15T12:29:00,axn,36.56
2023-07-15T12:30:00,axn,37.69
2023-07-15T12:31:00,axn,37.59
2023-07-15T12:32:00,axn,37.35
2023-07-15T12:33:00,axn,37.22
2023-07-15T12:34:00,axn,37.28
2023-07-15T12:35:00,axn,37.13
2023-07-15T12:36:00,axn,37.26
2023-07-15T12:37:00,axn,37.30
2023-07-15T12:38:00,axn,37.34
2023-07-15T12:39:00,axn,37.11
2023-07-15T12:40:00,axn,37.32
2023-07-15T12:41:00,axn,37.45
2023-07-15T12:42:00,axn,37.36
2023-07-15T12:43:00,axn,37.46
2023-07-15T12:44:00,axn,37.30
2023-07-15T12:45:00,axn,37.13
2023-07-15T12:46:00,axn,37.09
2023-07-15T12:47:00,axn,37.40
2023-07-15T12:48:00,axn,37.65
2023-07-15T12:49:00,axn,38.10
2023-07-15T12:50:00,axn,37.38
2023-07-15T12:51:00,axn,37.32
2023-07-15T12:52:00,axn,37.36
2023-07-15T12:53:00,axn,37.15
2023-07-15T12:54:00,axn,37.11
2023-07-15T12:55:00,axn,37.41
2023-07-15T12:56:00,axn,37.30
2023-07-15T12:57:00,axn,37.27
2023-07-15T12:58:00,axn,37.62
2023-07-15T12:59:00,axn,37.31
2023-07-15T13:00:00,axn,37.27
2023-07-15T13:01:00,axn,37.45
2023-07-15T13:02:00,axn,37.97
2023-07-15T13:03:00,axn,37.48
2023-07-15T13:04:00,axn,37.52
2023-07-15T13:05:00,axn,37.44
2023-07-15T13:06:00,axn,37.05
2023-07-15T13:07:00,axn,37.05
2023-07-15T13:08:00,axn,37.02
2023-07-15T13:09:00,axn,37.21
2023-07-15T13:10:00,axn,37.16
2023-07-15T13:11:00,axn,36.93
2023-07-15T13:12:00,axn,36.76
2023-07-15T13:13:00,axn,36.88
2023-07-15T13:14:00,axn,36.81
2023-07-15T13:15:00,axn,36.88
2023-07-15T13:16:00,axn,37.09
2023-07-15T13:17:00,axn,36.62
2023-07-15T13:18:00,axn,36.77